Printer-friendly version

IAU Minor Planet Center

Minor Planet Center

MPEC 2008-B65 : 2008 BE15

The following Minor Planet Electronic Circular may be linked-to from your own Web pages, but must not otherwise be redistributed electronically.


Read MPEC 2008-B64 Read MPEC 2008-B66


M.P.E.C. 2008-B65                                Issued 2008 Jan. 30, 16:54 UT

     The Minor Planet Electronic Circulars contain information on unusual
         minor planets and routine data on comets.  They are published
   on behalf of Commission 20 of the International Astronomical Union by the
          Minor Planet Center, Smithsonian Astrophysical Observatory,
                          Cambridge, MA 02138, U.S.A.

             Prepared using the Tamkin Foundation Computer Network

                              MPC@CFA.HARVARD.EDU
          URL http://www.cfa.harvard.edu/iau/mpc.html  ISSN 1523-6714

                                   2008 BE15

Observations:
     K08B15E* C2008 01 30.38330 09 35 44.95 +21 27 11.4          19.8 V EB065703
     K08B15E  C2008 01 30.38977 09 35 51.72 +21 27 23.6          19.2 V EB065703
     K08B15E  C2008 01 30.39624 09 35 58.48 +21 27 36.6          18.5 V EB065703
     K08B15E  C2008 01 30.40272 09 36 05.36 +21 27 49.2          18.8 V EB065703
     K08B15E  C2008 01 30.42937 09 36 32.05 +21 28 12.7          18.5 R EB065734
     K08B15E  C2008 01 30.43098 09 36 35.35 +21 28 42.2          18.9 V EB065703
     K08B15E  C2008 01 30.43141 09 36 34.27 +21 28 16.4          19.0 R EB065734
     K08B15E  C2008 01 30.43207 09 36 36.50 +21 28 43.1          19.4 V EB065703
     K08B15E  C2008 01 30.43316 09 36 37.69 +21 28 46.0          19.5 V EB065703
     K08B15E  C2008 01 30.43345 09 36 36.42 +21 28 19.9          19.1 R EB065734
     K08B15E  C2008 01 30.43424 09 36 38.77 +21 28 47.8          19.0 V EB065703
     K08B15E  C2008 01 30.43549 09 36 38.71 +21 28 23.7          19.3 R EB065734
     K08B15E  C2008 01 30.48082 09 37 29.28 +21 30 11.8          18.7 V EB065703
     K08B15E  C2008 01 30.48135 09 37 29.82 +21 30 12.5          18.5 V EB065703
     K08B15E  C2008 01 30.48188 09 37 30.39 +21 30 13.3          18.4 V EB065703
     K08B15E  C2008 01 30.48242 09 37 31.00 +21 30 14.1          18.5 V EB065703

Observer details:
703 Catalina Sky Survey.  Observer R. E. Hill.  Measurers E. C. Beshore,
    A. Boattini, G. J. Garradd, A. R. Gibbs, A. D. Grauer, R. E. Hill,
    R. A. Kowalski, S. M. Larson, R. H. McNaught.  0.68-m Schmidt + CCD.
734 Farpoint Observatory.  Observer G. Hug.  0.7-m reflector + CCD.

Orbital elements:
2008 BE15                                                Earth MOID = 0.0126 AU
Epoch 2007 Oct. 27.0 TT = JDT 2454400.5                 MPC
M 323.07361              (2000.0)            P               Q
n   0.27493048     Peri.   60.11448     -0.99745914     +0.05882508
a   2.3423626      Node   123.23028     -0.06959474     -0.92515174
e   0.6260227      Incl.    2.75364     +0.01522640     -0.37501181
P   3.58           H   24.7           G   0.15           U   9
Residuals in seconds of arc
080130 703  0.3+  0.1-    080130 734  0.5+  0.2-    080130 703  0.4+  0.3+
080130 703  0.0   0.4-    080130 703  0.2-  0.5-    080130 703  0.1-  0.1+
080130 703  0.6-  0.2+    080130 703  0.1+  0.4+    080130 703  0.3-  0.1-
080130 703  0.1+  0.5+    080130 734  0.3-  0.4-    080130 703  0.0   0.2-
080130 734  0.3+  0.3-    080130 703  0.9-  0.2+
080130 703  0.0   0.6+    080130 734  0.8+  0.2-

Ephemeris:
2008 BE15                a,e,i = 2.34, 0.63, 3                   q = 0.8760
Date    TT    R. A. (2000) Decl.     Delta      r     Elong.  Phase     V
2008 01 25    08 39.56   +19 10.0    0.0915   1.076   176.9     2.8    20.0
2008 01 26    08 45.86   +19 28.9    0.0837   1.068   176.3     3.4    19.8
2008 01 27    08 53.44   +19 50.6    0.0761   1.060   175.4     4.2    19.6
2008 01 28    09 02.72   +20 15.4    0.0686   1.053   174.1     5.5    19.4
2008 01 29    09 14.30   +20 43.6    0.0612   1.046   172.2     7.3    19.3
2008 01 30    09 29.03   +21 15.0    0.0541   1.038   169.6     9.9    19.1
2008 01 31    09 48.22   +21 48.4    0.0473   1.031   166.0    13.4    18.9
2008 02 01    10 13.81   +22 19.7    0.0408   1.024   160.9    18.3    18.8
2008 02 02    10 48.52   +22 37.8    0.0350   1.017   153.8    25.3    18.6
2008 02 03    11 35.55   +22 17.5    0.0302   1.010   143.9    35.1    18.6
2008 02 04    12 36.39   +20 35.2    0.0268   1.003   130.5    48.3    18.7
2008 02 05    13 46.41   +16 53.7    0.0254   0.997   114.5    64.2    19.0
2008 02 06    14 54.18   +11 42.5    0.0264   0.990    98.3    80.2    19.6
2008 02 07    15 50.16   +06 28.7    0.0294   0.984    84.5    93.8    20.4
2008 02 08    16 32.46   +02 10.5    0.0340   0.978    74.0   104.0    21.1
2008 02 09    17 03.63   -01 04.1    0.0397   0.971    66.6   111.3    21.9
2008 02 10    17 26.80   -03 28.0    0.0459   0.965    61.3   116.3    22.5
2008 02 11    17 44.41   -05 15.4    0.0525   0.960    57.5   119.8    23.0
2008 02 12    17 58.14   -06 37.3    0.0595   0.954    54.8   122.2    23.5
2008 02 13    18 09.11   -07 41.3    0.0666   0.949    52.9   123.9    23.9
2008 02 14    18 18.07   -08 32.3    0.0739   0.943    51.5   125.0    24.2

Timothy B. Spahr             (C) Copyright 2008 MPC           M.P.E.C. 2008-B65

Read MPEC 2008-B64 Read MPEC 2008-B66


Our Web policy. Index to the CBAT/MPC/ICQ pages.


Valid HTML 4.01!